When you browse on this site, cookies collect data to enhance your experience and personalize the content and advertising you see.
Visit our Privacy Policy to learn more. By continuing to use the site, you agree to this use of cookies and data.
  • In United Kingdom
  • List of Countries
  • For 7 days
  • Water Temperature
  • Weather Map
  • Weather Widgets
  • user-avatar
    Login

    Hourly Weather Rio de Janeiro

    Today, 18 February, Tuesday

    Time Temperature Precipitation Wind Pressure Humidity
    00:00 +28°C° 0.1 mm 1 mps 758 mmHg 78%
    01:00 +27°C° 0 mm 1 mps 757 mmHg 77%
    02:00 +27°C° 0 mm 1 mps 757 mmHg 77%
    03:00 +27°C° 0 mm 1 mps 757 mmHg 77%
    04:00 +27°C° 0 mm 1 mps 757 mmHg 78%
    05:00 +27°C° 0 mm 1 mps 757 mmHg 78%
    06:00 +26°C° 0 mm 1 mps 757 mmHg 79%
    07:00 +28°C° 0 mm 1 mps 758 mmHg 73%
    08:00 +30°C° 0 mm 1 mps 758 mmHg 66%
    09:00 +32°C° 0 mm 1 mps 758 mmHg 59%
    10:00 +34°C° 0 mm 1 mps 758 mmHg 55%
    11:00 +36°C° 0 mm 2 mps 758 mmHg 50%
    12:00 +38°C° 0 mm 2 mps 758 mmHg 45%
    13:00 +38°C° 0 mm 2 mps 757 mmHg 44%
    14:00 +38°C° 0 mm 2 mps 757 mmHg 43%
    15:00 +39°C° 0 mm 3 mps 756 mmHg 42%
    16:00 +37°C° 0 mm 3 mps 756 mmHg 49%
    17:00 +36°C° 0 mm 3 mps 756 mmHg 55%
    18:00 +34°C° 0 mm 4 mps 756 mmHg 61%
    19:00 +33°C° 0 mm 3 mps 756 mmHg 64%
    20:00 +31°C° 0 mm 3 mps 756 mmHg 67%
    21:00 +30°C° 0 mm 2 mps 757 mmHg 70%
    22:00 +30°C° 0 mm 2 mps 757 mmHg 70%
    23:00 +29°C° 0 mm 2 mps 757 mmHg 71%

    Tomorrow, 19 February, Wednesday

    Time Temperature Precipitation Wind Pressure Humidity
    00:00 +29°C° 0 mm 2 mps 756 mmHg 72%
    01:00 +28°C° 0 mm 2 mps 756 mmHg 73%
    02:00 +28°C° 0 mm 2 mps 756 mmHg 74%
    03:00 +28°C° 0 mm 2 mps 755 mmHg 75%
    04:00 +27°C° 0 mm 2 mps 755 mmHg 76%
    05:00 +27°C° 0 mm 2 mps 755 mmHg 76%
    06:00 +27°C° 0 mm 2 mps 755 mmHg 76%
    07:00 +29°C° 0 mm 2 mps 756 mmHg 69%
    08:00 +31°C° 0 mm 2 mps 756 mmHg 62%
    09:00 +34°C° 0 mm 2 mps 756 mmHg 54%
    10:00 +36°C° 0 mm 2 mps 756 mmHg 50%
    11:00 +37°C° 0 mm 2 mps 756 mmHg 46%
    12:00 +39°C° 0 mm 2 mps 756 mmHg 42%
    13:00 +39°C° 0 mm 2 mps 755 mmHg 42%
    14:00 +39°C° 0 mm 2 mps 754 mmHg 42%
    15:00 +39°C° 0 mm 2 mps 754 mmHg 41%
    16:00 +38°C° 0.1 mm 2 mps 754 mmHg 48%
    17:00 +36°C° 0.1 mm 2 mps 754 mmHg 55%
    18:00 +34°C° 0.1 mm 2 mps 754 mmHg 63%
    19:00 +32°C° 0 mm 1 mps 754 mmHg 66%
    20:00 +31°C° 0 mm 1 mps 755 mmHg 69%
    21:00 +30°C° 0 mm 1 mps 755 mmHg 72%
    22:00 +30°C° 0 mm 1 mps 755 mmHg 73%
    23:00 +29°C° 0 mm 1 mps 755 mmHg 74%

    Day after tomorrow, 20 February, Thursday

    Time Temperature Precipitation Wind Pressure Humidity
    00:00 +29°C° 0 mm 1 mps 755 mmHg 75%
    01:00 +28°C° 0 mm 1 mps 755 mmHg 75%
    02:00 +28°C° 0 mm 1 mps 755 mmHg 76%
    03:00 +28°C° 0 mm 1 mps 754 mmHg 77%
    04:00 +27°C° 0 mm 1 mps 754 mmHg 77%
    05:00 +27°C° 0 mm 1 mps 755 mmHg 77%
    06:00 +27°C° 0 mm 2 mps 755 mmHg 77%
    07:00 +29°C° 0 mm 2 mps 755 mmHg 70%
    08:00 +31°C° 0 mm 1 mps 755 mmHg 63%
    09:00 +33°C° 0 mm 1 mps 756 mmHg 56%
    10:00 +34°C° 0 mm 1 mps 755 mmHg 51%
    11:00 +36°C° 0 mm 1 mps 755 mmHg 46%
    12:00 +39°C° 0 mm 1 mps 755 mmHg 41%
    13:00 +39°C° 0 mm 2 mps 754 mmHg 41%
    14:00 +39°C° 0 mm 2 mps 754 mmHg 41%
    15:00 +39°C° 0 mm 2 mps 753 mmHg 41%
    16:00 +37°C° 0 mm 2 mps 753 mmHg 49%
    17:00 +35°C° 0 mm 2 mps 753 mmHg 57%
    18:00 +32°C° 0 mm 2 mps 753 mmHg 64%
    19:00 +31°C° 0.1 mm 2 mps 754 mmHg 67%
    20:00 +31°C° 0.1 mm 1 mps 754 mmHg 69%
    21:00 +30°C° 0.1 mm 1 mps 755 mmHg 71%
    22:00 +29°C° 0 mm 1 mps 755 mmHg 73%
    23:00 +29°C° 0 mm 1 mps 755 mmHg 74%

    21 February, Friday

    Time Temperature Precipitation Wind Pressure Humidity
    00:00 +28°C° 0 mm 1 mps 755 mmHg 76%
    01:00 +28°C° 0 mm 1 mps 754 mmHg 76%
    02:00 +28°C° 0 mm 1 mps 754 mmHg 76%
    03:00 +28°C° 0 mm 1 mps 753 mmHg 76%
    10:00 +36°C° 0 mm 2 mps 754 mmHg 51%
    11:00 +37°C° 0 mm 2 mps 753 mmHg 46%
    12:00 +38°C° 0 mm 3 mps 753 mmHg 42%
    13:00 +37°C° 0 mm 4 mps 753 mmHg 46%
    14:00 +36°C° 0 mm 4 mps 752 mmHg 50%
    15:00 +35°C° 0 mm 5 mps 752 mmHg 54%
    16:00 +34°C° 0.2 mm 4 mps 752 mmHg 60%
    17:00 +32°C° 0.2 mm 4 mps 752 mmHg 66%
    18:00 +30°C° 0.2 mm 3 mps 753 mmHg 73%
    19:00 +29°C° 1.2 mm 2 mps 753 mmHg 77%
    20:00 +28°C° 1.2 mm 2 mps 754 mmHg 81%
    21:00 +28°C° 1.2 mm 1 mps 754 mmHg 85%
    22:00 +27°C° 2.5 mm 2 mps 754 mmHg 86%
    23:00 +27°C° 2.5 mm 2 mps 754 mmHg 87%

    22 February, Saturday

    Time Temperature Precipitation Wind Pressure Humidity
    00:00 +27°C° 2.5 mm 3 mps 754 mmHg 88%
    01:00 +26°C° 11.8 mm 4 mps 754 mmHg 90%
    02:00 +26°C° 11.8 mm 5 mps 754 mmHg 92%
    03:00 +24°C° 11.8 mm 6 mps 754 mmHg 94%
    04:00 +25°C° 3.4 mm 5 mps 754 mmHg 92%
    05:00 +23°C° 3.4 mm 5 mps 755 mmHg 91%
    06:00 +23°C° 3.4 mm 4 mps 756 mmHg 89%
    07:00 +24°C° 0.7 mm 3 mps 756 mmHg 85%
    08:00 +24°C° 0.7 mm 3 mps 757 mmHg 82%
    09:00 +25°C° 0.7 mm 2 mps 758 mmHg 79%
    10:00 +25°C° 0.1 mm 2 mps 758 mmHg 75%
    11:00 +26°C° 0.1 mm 2 mps 758 mmHg 72%
    12:00 +27°C° 0.1 mm 2 mps 758 mmHg 68%
    13:00 +27°C° 0.1 mm 2 mps 758 mmHg 69%
    14:00 +27°C° 0.1 mm 2 mps 757 mmHg 69%
    15:00 +27°C° 0.1 mm 2 mps 757 mmHg 70%
    16:00 +26°C° 0.2 mm 2 mps 757 mmHg 72%
    17:00 +25°C° 0.2 mm 2 mps 758 mmHg 75%
    18:00 +25°C° 0.2 mm 2 mps 758 mmHg 77%
    19:00 +25°C° 0.1 mm 2 mps 758 mmHg 76%
    20:00 +25°C° 0.1 mm 1 mps 759 mmHg 74%
    21:00 +25°C° 0.1 mm 1 mps 759 mmHg 73%
    22:00 +24°C° 0.1 mm 1 mps 759 mmHg 74%
    23:00 +24°C° 0.1 mm 1 mps 759 mmHg 74%

    23 February, Sunday

    Time Temperature Precipitation Wind Pressure Humidity
    00:00 +24°C° 0.1 mm 1 mps 759 mmHg 74%
    01:00 +24°C° 0.2 mm 1 mps 759 mmHg 76%
    02:00 +23°C° 0.2 mm 1 mps 759 mmHg 78%
    03:00 +23°C° 0.2 mm 1 mps 758 mmHg 80%
    04:00 +23°C° 0.3 mm 1 mps 759 mmHg 80%
    05:00 +23°C° 0.3 mm 1 mps 759 mmHg 80%
    06:00 +23°C° 0.3 mm 1 mps 759 mmHg 81%
    07:00 +23°C° 0.1 mm 2 mps 760 mmHg 80%
    08:00 +24°C° 0.1 mm 2 mps 760 mmHg 79%
    09:00 +24°C° 0.1 mm 2 mps 760 mmHg 79%
    10:00 +25°C° 0 mm 2 mps 760 mmHg 74%
    11:00 +26°C° 0 mm 3 mps 760 mmHg 69%
    12:00 +27°C° 0 mm 3 mps 760 mmHg 65%
    13:00 +27°C° 0 mm 3 mps 760 mmHg 65%
    14:00 +26°C° 0 mm 3 mps 760 mmHg 66%
    15:00 +26°C° 0 mm 4 mps 759 mmHg 67%
    16:00 +26°C° 0 mm 4 mps 759 mmHg 67%
    17:00 +26°C° 0 mm 4 mps 759 mmHg 68%
    18:00 +25°C° 0 mm 4 mps 759 mmHg 69%
    19:00 +25°C° 0 mm 3 mps 760 mmHg 70%
    20:00 +24°C° 0 mm 3 mps 760 mmHg 71%
    21:00 +24°C° 0 mm 3 mps 760 mmHg 73%
    22:00 +24°C° 0 mm 3 mps 760 mmHg 72%
    23:00 +24°C° 0 mm 2 mps 760 mmHg 72%
    Show more